Regional Weather Roundup
Issued by NWS

Home | Current Version | Previous Version | Graphics & Text | Print | Product List | Glossary On
Versions: 1 2 3 4 5 6 7 8 9 10 11 12 13 14 15 16 17 18 19 20 21 22 23 24 25 26 27
000
ASUS45 KSLC 212010
RWRUT

UTAH REGIONAL WEATHER ROUNDUP
NATIONAL WEATHER SERVICE SALT LAKE CITY UT
200 PM MDT FRI JUL 21 2017

UTZ001>011-023>025-212100-

NORTHERN UTAH

CITY           SKY/WX    TMP DP  RH WIND       PRES   REMARKS
BRIGHAM CITY   SUNNY     91  39  16 W6        30.07F
HILL AFB       MOSUNNY   88  55  32 W5        30.10F
LOGAN          SUNNY     91  39  16 N10       30.08F
OGDEN          SUNNY     90  55  30 CALM      30.07F
SALT LAKE CITY MOSUNNY   94  53  25 NW8       30.04F HX  91
TOOELE VALLEY  SUNNY     90  55  31 N9        30.07F
WENDOVER       SUNNY     91  39  16 SE9       30.07F
HEBER CITY     SUNNY     91  45  19 SW7       30.12F
WEST JORDAN    SUNNY     91  63  40 NW9G16    30.08F HX  91

$$

UTZ011>015-024>027-212100-

CENTRAL/NORTHEAST UTAH

CITY           SKY/WX    TMP DP  RH WIND       PRES   REMARKS
PROVO AIRPORT  SUNNY     91  51  25 NW7       30.07F
MOAB/CANYONLAN SUNNY     90  51  26 CALM      30.06F
DELTA          SUNNY     91  43  18 W6        30.08F
PRICE          MOSUNNY   87  50  27 S10       30.17F
ROOSEVELT      SUNNY     90  48  24 NE3       30.14F
VERNAL         SUNNY     89  51  27 W6        30.13F

$$

UTZ013>016-019>022-027-212100-

SOUTHERN UTAH

CITY           SKY/WX    TMP DP  RH WIND       PRES   REMARKS
BRYCE CANYON   PTSUNNY   74  50  42 NW13      30.32F
CEDAR CITY     SUNNY     88  47  24 VRB6      30.15F
MILFORD        SUNNY     94  47  20 MISG      30.09F HX  90
ST GEORGE      CLEAR    100  50  18 SW15G23   29.96F HX  97
HANKSVILLE     MOSUNNY   91  50  24 SE6G17    30.08F
BLANDING       MOSUNNY   81  51  35 SW6       30.28F

$$

REGIONAL REPORTS     COLORADO/ARIZONA

CITY           SKY/WX    TMP DP  RH WIND       PRES   REMARKS
CRAIG, CO      CLOUDY    86  43  22 SW3       30.18F
GRAND JUNCTION SUNNY     90  50  25 W6        30.08F
RIFLE, CO      CLOUDY    79  56  45 NW5       30.16F
MONTROSE, CO   CLOUDY    86  49  27 VRB3      30.17F
CORTEZ, CO     CLOUDY    82  54  37 W9        30.18F
COLORADO CITY    N/A     93  46  20 W8        30.15F
PAGE, AZ       MOSUNNY   94  53  25 NE10      30.06F HX  91
GRAND CANYON   PTSUNNY   75  56  51 W10       30.29F THUNDER
KINGMAN, AZ    SUNNY     95  54  25 SW18G26   30.06F HX  93
FLAGSTAFF, AZ  TSTM      60  56  86 VRB3      30.32R FOG

$$

REGIONAL REPORTS    NEVADA/IDAHO/WYOMING

CITY           SKY/WX    TMP DP  RH WIND       PRES   REMARKS
LAS VEGAS, NV  MOSUNNY  100  50  18 VRB3G18   29.91F HX  97
ELY, NY        SUNNY     88  38  17 NE6       30.20F
ELKO, NV       SUNNY     90   6   4 SW5       30.12F
POCATELLO, ID  SUNNY     88  27  11 SW8       30.13F
BURLEY, ID     SUNNY     83  44  25 VRB5      30.10F
FORT BRIDGER,    N/A     82  40  22 NW5       30.29F
EVANSTON, WY   CLOUDY    81  47  30 NE7       30.27F
ROCK SPRINGS,  CLOUDY    78  51  38 VRB3      30.24F
KEMMERER, WY     N/A     81  30  16 N6        30.30S

$$




USA.gov is the U.S. government's official web portal to all federal, state and local government web resources and services.